FENGYUN 1C DEB, 43358

Orbit data source: Space-Track

FENGYUN 1C DEB, 43358 is space debris in SSO originally from a launch on Mon, 10 May 1999 UTC launched from the Taiyaun Space Center, China (TSC). Fengyun 1C debris stems from the Chinese weather satellite Fengyun-1C, which was intentionally destroyed by a Chinese anti-satellite missile in 2007. This event dramatically increased the amount of space debris, with thousands of trackable fragments posing hazards to satellites and human spaceflight. The Fengyun 1C debris cloud has become a focal point in discussions about space sustainability and the need for international regulations to prevent the creation of new debris.

Loading next visibility...
Identifier
43358, 1999-025EYP
Orbit
SSO
Country
Flag of CNCN / PRC
Related business
Manufacturer
Unknown
Mission
Spacecraft
Bus & Motor
Unknown
Mass
Unknown
Launch date (UTC)
1999-05-10 (27 years ago)
Launch vehicle
Unknown
Launch site
Taiyaun Space Center, China (TSC)
Object type
Payload
Rocket body
Debris
Shape & HBR
Unknown shape, 0.1 m
Radar Cross Section
Small (<0.1 m²)

Expand to show TLE details & history
Last TLE update: 1 day ago

TLE from 1 day ago
0 FENGYUN 1C DEB
1 43358U 99025EYP 26103.27532926  .00001360  00000-0  17271-2 0  9996
2 43358  98.6873 211.3718 0362476 255.0148 101.0600 13.40744656553597
Epoch: 2026-04-13T06:36Z
TLE epoch observation values (Epoch: 2026-04-13T06:36:28.448Z)
Latitude
-0.00005°
Longitude
-89.21499°
Altitude
1,170.737 km
Speed
7.238 km/s
True Right ascension
14h 05m 29s
True Declination
0° 00' 00"
Sunlit
Object was in full shadow at epoch
Visualization orbit readout
Latitude
Unknown
Longitude
Unknown
Altitude
Unknown
Speed
Unknown
Apparent Right ascension
Unknown
Apparent Declination
Unknown
Sunlit
N/A
Visualization observer readout
Local Sidereal Time
15:07:41
Azimuth
Unknown
Elevation
Unknown
Doppler factor
Unknown
Orbital elements
Apogee altitude
1,374.967 km
Perigee altitude
832.565 km
Semi-major axis
7,481.903 km
Eccentricity
0.03625
Inclination
98.6873°
RAAN
211.3718°
Arg. of periapsis
255.0148°
True anomaly
105.09804°
Mean anomaly
101.06°
Eccentric anomaly
103.08293°
Mean motion
3.35371 °/min
Orbital period
107.34 mins
BSTAR
0.0017271
Loading maneuver chart data...
Computing Atmospheric mass density...
Loading historical data...
Loading historical data...
Loading historical data...
Loading historical data...
Loading historical data...
Loading historical data...
Loading historical data...

Documentation

Showing up to 5 results
|